Back to catalog

ONEWEB-0025

AliveCommunicationsPO
NORAD 45138·PAYLOAD·🇬🇧 United Kingdom

Launched Feb 6, 2020 from Baikonur Cosmodrome

Loading…

Next Passes (next 24 hours)

TLE

FreshSource: CelesTrak SupGP

Epoch: Sep 14, 2026, 13:23 UTC

1 45138C 20008H   26257.55815232 -.00002518  00000+0 -72214-2 0  2576
2 45138  87.8925  18.4607 0001371 112.5953 358.0086 13.10379106    18

Track ONEWEB-0025 in real time with AllMySat

Download on the App Store